Simultaneous Nadir Overpasses (SNOs) Predictions

Prediction of SNOs between LANDSAT-8 and METOP-B Satellite Orbit:

Table of predicted SNOs for the next 14.0 days since TLE Epoch: 12/22/2013
Index Date (LANDSAT-8) Time (LANDSAT-8) Lat,Lon (LANDSAT-8) SZA (LANDSAT-8 ) Date (METOP-B) Time (METOP-B) Lat,Lon (METOP-B) SZA (METOP-B ) Distance(km) Time Diff (sec)
1 12/23/2013 06:43:30 81.06, 118.08 106.35 12/23/2013 06:42:36 81.06, 118.01 106.33 1.38 54
2 12/23/2013 07:32:56 -81.09, -73.89 73.60 12/23/2013 07:33:16 -81.08, -74.06 73.60 2.96 20
3 12/26/2013 02:17:49 81.06,-175.47 106.26 12/26/2013 02:16:59 81.07,-175.45 106.25 0.65 50
4 12/26/2013 03:07:15 -81.09, -7.41 73.69 12/26/2013 03:07:39 -81.09, -7.52 73.69 1.85 24
5 12/28/2013 21:52:10 81.06,-109.03 106.11 12/28/2013 21:51:21 81.07,-108.96 106.10 1.23 49
6
